Location: Casone le Fosse
(44.6547°N, 12.1103°E)
Time: 11:56:18
(UTC+00:00)

COSMO-SKYMED 1 - Pass Details

Date: 29 October 2020
Orbit: 621 x 623 km, 97.9° (Epoch: 28 November)

Event Time Altitude Azimuth Distance (km) Brightness Sun altitude
Rises 17:02:20 0° 17° (NNE) 2,913 5.8 -10.9°
Reaches altitude 10° 17:04:35 10° 22° (NNE) 2,002 4.9 -11.3°
Maximum altitude 17:08:52 55° 100° (E) 748 2.6 -12.0°
Drops below altitude 10° 17:13:06 10° 179° (S) 1,985 5.2 -12.8°
Sets 17:15:19 0° 184° (S) 2,886 6.1 -13.2°
